Overview Statistics Trail Chart Weather Telemetry Raw packets
 

This is the latest recevied weather packets stored in our database for station/object SV7GBF-2. If no packets are shown the sender has not sent any weather packets the latest 10 day(s).

<< 4 5 6 7 8 9 10 >>
Time Temp. Humidity Pressure Rain* Wind** Luminosity Snow
1788567263 23.33° C 27% 1017 hPa - - - -
1788566645 23.33° C 27% 1017 hPa - - - -
1788564845 23.89° C 24% 1017 hPa - - - -
1788564246 23.89° C 24% 1017 hPa - - - -
1788563046 23.89° C 22% 1016 hPa - - - -
1788562448 23.89° C 22% 1017 hPa - - - -
1788561846 24.44° C 22% 1017 hPa - - - -
1788560645 23.33° C 21% 1017 hPa - - - -
1788560046 23.89° C 18% 1017 hPa - - - -
1788559445 24.44° C 18% 1017 hPa - - - -
1788558846 25° C 15% 1017 hPa - - - -
1788558246 25° C 18% 1017 hPa - - - -
1788557645 25° C 18% 1017 hPa - - - -
1788557045 25° C 20% 1017 hPa - - - -
1788556446 25° C 20% 1017 hPa - - - -
1788555845 23.89° C 21% 1017 hPa - - - -
1788555245 23.89° C 21% 1017 hPa - - - -
1788554646 23.89° C 20% 1017 hPa - - - -
1788554045 24.44° C 20% 1017 hPa - - - -
1788553445 24.44° C 20% 1017 hPa - - - -
1788552846 24.44° C 20% 1017 hPa - - - -
1788551046 25° C 18% 1017 hPa - - - -
1788550445 25.56° C 15% 1017 hPa - - - -
1788549845 25.56° C 15% 1016 hPa - - - -
1788548645 25° C 15% 1017 hPa - - - -

* Rain since midnight (hover to see other rain measurements)
** Current wind speed in m/s (hover to see current wind gust speed)